DW1980 Weather Reports


Display with metric or nautical units.
time (UTC)temp
F
wind
direction
speed
MPH
gust
MPH
rain 1hr
in
rain 24hr
in
rain mn
in
humidity
%
barometer
mb
20260902053114 63 350 0.0 3.0 0.00 1.12 0.00 94 1019.1
20260902053100 63 0 0.0 3.0 0.00 1.14 0.00 93 1019.1
20260902052900 64 350 0.0 3.0 0.00 1.13 0.00 94 1019.5
20260902052351 64 348 1.0 3.0 0.00 1.13 0.00 93 1019.6
20260902051840 64 350 2.0 3.0 0.00 1.13 0.00 93 1019.6
20260902051606 63 9 1.0 3.0 0.00 1.12 0.00 93 1019.1
20260902051553 64 313 0.0 4.0 0.00 1.14 0.00 93 1019.2
20260902051409 64 336 0.0 4.0 0.00 1.13 0.00 93 1019.6
20260902050838 64 336 2.0 4.0 0.00 1.13 0.00 93 1019.7
20260902050349 64 14 1.0 4.0 0.00 1.13 0.00 93 1019.6
20260902050114 64 335 2.0 4.0 0.00 1.12 0.00 93 1019.0
20260902050045 64 314 0.0 3.0 0.00 1.14 0.00 93 1019.2
20260902045837 64 330 0.0 3.0 0.00 1.42 0.00 93 1019.5
20260902045348 64 350 1.0 3.0 0.00 1.42 0.00 93 1019.5
20260902044837 64 346 2.0 3.0 0.00 1.42 0.00 93 1019.4
20260902044605 64 304 0.0 3.0 0.00 1.42 0.00 93 1018.9
20260902044555 64 0 0.0 3.0 0.00 1.42 0.00 93 1019.0
20260902044347 64 324 0.0 3.0 0.00 1.42 0.00 93 1019.4
20260902043838 64 109 0.0 2.0 0.00 1.42 0.00 93 1019.4
20260902043349 64 275 1.0 2.0 0.00 1.42 0.00 93 1019.5
20260902043116 64 36 0.0 1.0 0.00 1.42 0.00 93 1019.0
20260902043058 64 0 0.0 4.0 0.00 1.42 0.00 92 1019.1
20260902042855 64 38 0.0 4.0 0.00 1.42 0.00 93 1019.4
20260902042406 64 44 0.0 4.0 0.00 1.42 0.00 93 1019.4
20260902041916 64 261 1.0 6.0 0.00 1.42 0.00 93 1019.3
20260902041545 64 14 0.0 6.0 0.00 1.42 0.00 92 1018.9
20260902041507 64 38 0.0 6.0 0.00 1.42 0.00 93 1018.9
20260902041404 64 38 1.0 6.0 0.00 1.42 0.00 93 1019.3
20260902040853 64 304 1.0 4.0 0.00 1.42 0.00 93 1019.3
20260902040343 64 300 1.0 4.0 0.00 1.42 0.00 93 1019.2
20260902040111 64 267 0.0 4.0 0.00 1.42 0.00 93 1018.7
20260902040058 64 0 0.0 2.0 0.00 1.42 0.00 92 1018.8
20260902035913 64 340 0.0 2.0 0.00 1.42 1.42 93 1019.1
20260902035402 65 317 1.0 4.0 0.00 1.42 1.42 93 1019.0
20260902034852 65 87 1.0 5.0 0.00 1.42 1.42 93 1019.0
20260902034604 64 0 0.0 2.0 0.00 1.42 1.42 92 1018.6
20260902034503 64 338 0.0 2.0 0.00 1.42 1.42 93 1018.5
20260902034402 65 338 0.0 2.0 0.00 1.42 1.42 93 1019.0
20260902033850 65 315 0.0 2.0 0.00 1.42 1.42 93 1018.9
20260902033341 65 248 0.0 2.0 0.00 1.42 1.42 93 1019.0
20260902033106 64 158 0.0 2.0 0.00 1.42 1.42 93 1018.5
20260902033056 64 0 0.0 4.0 0.00 1.42 1.42 92 1018.5
20260902032909 65 157 1.0 4.0 0.00 1.42 1.42 93 1018.8
20260902032338 65 194 1.0 4.0 0.00 1.42 1.42 93 1018.6
20260902031909 65 269 1.0 3.0 0.00 1.42 1.42 93 1018.6
20260902031617 64 307 1.0 3.0 0.00 1.42 1.42 93 1017.9
20260902031548 64 5 1.0 3.0 0.00 1.42 1.42 92 1018.1
20260902031339 65 233 1.0 3.0 0.00 1.42 1.42 93 1018.3
20260902030849 65 98 1.0 3.0 0.00 1.42 1.42 93 1018.4
20260902030341 65 329 0.0 3.0 0.00 1.42 1.42 93 1018.5
20260902030108 64 329 0.0 3.0 0.00 1.42 1.42 92 1017.9
20260902030052 64 0 0.0 3.0 0.00 1.42 1.42 92 1018.1
20260902025848 65 258 0.0 3.0 0.00 1.42 1.42 92 1018.5
20260902025338 65 209 1.0 3.0 0.00 1.42 1.42 92 1018.6
20260902024850 65 127 1.0 3.0 0.00 1.42 1.42 93 1018.5
20260902024617 65 276 0.0 3.0 0.00 1.42 1.42 93 1017.9
20260902024553 65 0 0.0 7.0 0.00 1.42 1.42 92 1018.1
20260902024339 65 281 0.0 7.0 0.00 1.42 1.42 93 1018.3
20260902023850 65 248 1.0 7.0 0.00 1.42 1.42 92 1018.5
20260902023341 65 257 2.0 6.0 0.00 1.42 1.42 92 1018.3
20260902023106 65 308 0.0 6.0 0.00 1.42 1.42 92 1017.8
20260902023053 65 0 0.0 3.0 0.00 1.42 1.42 92 1017.9
20260902022848 65 274 0.0 3.0 0.00 1.42 1.42 92 1018.3
20260902022340 65 360 1.0 3.0 0.00 1.42 1.42 92 1018.4
20260902021851 65 326 1.0 4.0 0.00 1.42 1.42 92 1018.3
20260902021619 65 52 0.0 4.0 0.00 1.42 1.42 92 1017.7
20260902021555 65 0 0.0 4.0 0.00 1.42 1.42 92 1017.9
20260902021344 65 28 0.0 4.0 0.00 1.42 1.42 92 1018.3
20260902020852 65 311 1.0 6.0 0.00 1.42 1.42 92 1018.3
20260902020359 66 360 3.0 6.0 0.00 1.42 1.42 92 1018.2
20260902020118 65 339 0.0 5.0 0.00 1.42 1.42 92 1017.7
20260902020100 65 312 0.0 6.0 0.00 1.42 1.42 91 1017.9
20260902015844 66 46 2.0 5.0 0.00 1.42 1.42 92 1018.2
20260902015351 66 257 2.0 5.0 0.00 1.42 1.42 92 1018.2
20260902014859 66 122 0.0 3.0 0.00 1.42 1.42 92 1018.0
20260902014622 65 122 0.0 3.0 0.00 1.42 1.42 92 1017.4
20260902014551 65 0 0.0 3.0 0.00 1.42 1.42 91 1017.6
20260902014348 66 122 1.0 3.0 0.00 1.42 1.42 92 1017.9
20260902013836 66 80 1.0 3.0 0.00 1.42 1.42 92 1017.6
20260902013342 66 92 0.0 6.0 0.00 1.42 1.42 92 1017.6
20260902013103 66 252 1.0 6.0 0.00 1.42 1.42 92 1017.1
20260902013049 66 252 2.0 6.0 0.00 1.42 1.42 91 1017.3
20260902012909 66 240 2.0 6.0 0.00 1.42 1.42 92 1017.6
20260902012418 66 355 1.0 6.0 0.00 1.42 1.42 92 1017.5
20260902011846 67 337 0.0 5.0 0.00 1.42 1.42 92 1017.4
20260902011609 66 343 0.0 5.0 0.00 1.42 1.42 92 1016.9
20260902011555 66 0 0.0 6.0 0.00 1.42 1.42 91 1017.2
20260902011353 67 274 1.0 5.0 0.00 1.42 1.42 92 1017.4
20260902010841 67 290 2.0 5.0 0.00 1.42 1.42 92 1017.3
20260902010351 67 346 3.0 5.0 0.00 1.42 1.42 92 1017.2
20260902010109 67 332 1.0 4.0 0.00 1.42 1.42 92 1016.6
20260902010056 67 225 0.0 4.0 0.00 1.42 1.42 91 1016.9
20260902005835 67 329 1.0 4.0 0.00 1.42 1.42 92 1017.1
20260902005351 67 344 1.0 5.0 0.00 1.42 1.42 92 1017.0
20260902004838 67 64 2.0 8.0 0.00 1.42 1.42 92 1017.0
20260902004605 67 46 0.0 8.0 0.00 1.42 1.42 92 1016.6
20260902004550 67 65 1.0 8.0 0.00 1.42 1.42 91 1016.9
20260902004348 67 107 2.0 8.0 0.00 1.42 1.42 91 1017.2
20260902003858 68 148 0.0 3.0 0.00 1.42 1.42 91 1017.1
20260902003349 68 215 2.0 7.0 0.00 1.42 1.42 91 1017.1
20260902003118 67 250 1.0 7.0 0.00 1.42 1.42 92 1016.6
20260902003053 67 0 1.0 8.0 0.00 1.42 1.42 91 1017.1
20260902002855 68 176 1.0 4.0 0.00 1.42 1.42 92 1017.1
20260902002406 68 188 2.0 5.0 0.00 1.42 1.42 92 1016.7
20260902001853 68 232 2.0 5.0 0.00 1.42 1.42 91 1016.7
20260902001623 68 337 1.0 4.0 0.00 1.42 1.42 91 1016.0
20260902001559 68 327 0.0 4.0 0.00 1.42 1.42 91 1016.3
20260902001343 68 157 0.0 4.0 0.00 1.42 1.42 92 1016.4
20260902000854 69 73 1.0 4.0 0.00 1.42 1.42 91 1016.4
20260902000345 69 316 2.0 5.0 0.00 1.42 1.42 91 1016.4
20260902000109 68 267 2.0 5.0 0.00 1.42 1.42 91 1015.9
20260902000056 69 295 1.0 5.0 0.00 1.42 1.42 91 1016.2
20260901235853 69 89 1.0 5.0 0.00 1.42 1.42 91 1016.4
20260901235344 69 188 2.0 8.0 0.00 1.42 1.42 92 1016.4
20260901234854 70 360 1.0 8.0 0.00 1.42 1.42 92 1016.4
20260901234603 69 294 1.0 8.0 0.00 1.42 1.42 92 1015.9
20260901234559 69 136 0.0 8.0 0.00 1.42 1.42 91 1016.3
20260901234345 70 161 0.0 7.0 0.00 1.42 1.42 92 1016.4
20260901233855 70 274 2.0 5.0 0.00 1.42 1.42 92 1016.5
20260901233346 71 225 1.0 7.0 0.00 1.42 1.42 92 1016.5
20260901233110 70 187 0.0 7.0 0.00 1.42 1.42 92 1015.8
20260901233058 70 0 0.0 8.0 0.00 1.42 1.42 91 1016.3
20260901232852 71 254 2.0 7.0 0.00 1.42 1.42 92 1016.4
20260901232344 71 238 1.0 5.0 0.00 1.42 1.42 92 1016.2
20260901231855 72 248 0.0 5.0 0.00 1.42 1.42 92 1016.2
20260901231623 71 5 1.0 5.0 0.00 1.42 1.42 92 1015.4
20260901231549 72 230 1.0 3.0 0.00 1.42 1.42 92 1015.8
20260901231344 72 105 1.0 3.0 0.00 1.42 1.42 92 1015.9
20260901230915 73 194 1.0 5.0 0.00 1.42 1.42 92 1015.9
20260901230346 73 278 1.0 5.0 0.00 1.42 1.42 92 1015.8
20260901230110 72 173 0.0 5.0 0.00 1.42 1.42 92 1015.3
20260901230054 72 0 0.0 5.0 0.00 1.42 1.42 91 1015.8
20260901225852 73 64 1.0 5.0 0.00 1.42 1.42 92 1015.9
20260901225343 74 223 1.0 4.0 0.00 1.42 1.42 92 1015.8
20260901224837 74 141 0.0 4.0 0.00 1.42 1.42 92 1015.6
20260901224623 74 130 1.0 4.0 0.00 1.42 1.42 92 1015.0
20260901224555 74 178 0.0 4.0 0.00 1.42 1.42 91 1015.4
20260901224348 74 144 0.0 4.0 0.00 1.42 1.42 92 1015.4
20260901223857 75 154 1.0 6.0 0.00 1.42 1.42 92 1015.3
20260901223344 75 166 1.0 6.0 0.00 1.42 1.42 92 1015.4
20260901223108 75 242 2.0 6.0 0.00 1.42 1.42 92 1014.9
20260901223048 75 131 2.0 6.0 0.00 1.42 1.42 92 1015.3
20260901222849 76 161 1.0 3.0 0.00 1.42 1.42 92 1015.3
20260901222338 76 147 1.0 3.0 0.00 1.42 1.42 92 1015.1
20260901221908 76 152 1.0 3.0 0.00 1.42 1.42 92 1015.0
20260901221609 76 86 0.0 2.0 0.00 1.42 1.42 92 1014.5
20260901221556 76 0 0.0 2.0 0.00 1.42 1.42 92 1014.9
20260901221356 76 86 1.0 2.0 0.00 1.42 1.42 92 1015.1
20260901220844 76 63 0.0 1.0 0.00 1.42 1.42 92 1015.1
20260901220353 76 38 0.0 1.0 0.00 1.42 1.42 92 1015.1
20260901220127 76 38 0.0 4.0 0.00 1.42 1.42 92 1014.6
20260901220114 76 0 0.0 4.0 0.00 1.42 1.42 92 1015.1
20260901215838 76 38 0.0 4.0 0.00 1.42 1.42 92 1015.2
20260901215348 77 180 0.0 3.0 0.00 1.42 1.42 92 1015.1
20260901214854 76 151 0.0 3.0 0.00 1.42 1.42 92 1015.1
20260901214619 76 151 0.0 3.0 0.00 1.42 1.42 92 1014.6
20260901214546 76 0 0.0 4.0 0.00 1.42 1.42 92 1015.0
20260901214342 76 151 1.0 3.0 0.00 1.42 1.42 92 1015.2
20260901213853 76 202 1.0 4.0 0.00 1.42 1.42 92 1015.1
20260901213345 77 136 1.0 4.0 0.00 1.42 1.42 92 1015.1
20260901213115 76 173 1.0 4.0 0.00 1.42 1.42 92 1014.6
20260901213045 76 157 0.0 1.0 0.00 1.42 1.42 91 1015.0
20260901212851 77 244 0.0 1.0 0.00 1.42 1.42 92 1015.1
20260901212340 77 244 0.0 1.0 0.00 1.42 1.42 91 1015.1
20260901211912 77 244 0.0 1.0 0.00 1.42 1.42 91 1015.1
20260901211618 76 244 0.0 1.0 0.00 1.42 1.42 91 1014.4
20260901211554 76 0 0.0 1.0 0.00 1.42 1.42 91 1014.9
20260901211341 77 244 0.0 1.0 0.00 1.42 1.42 91 1015.0
20260901210851 77 244 0.0 0.0 0.00 1.42 1.42 91 1015.0
20260901210402 77 244 0.0 0.0 0.00 1.42 1.42 91 1014.9
20260901210107 77 244 0.0 0.0 0.00 1.42 1.42 91 1014.4
20260901210052 77 0 0.0 0.0 0.00 1.42 1.42 90 1014.8
20260901205909 77 244 0.0 0.0 0.00 1.42 1.42 90 1015.0
20260901205338 77 244 0.0 0.0 0.00 1.42 1.42 90 1015.0
20260901204910 77 244 0.0 0.0 0.00 1.42 1.42 90 1015.1
20260901204618 77 244 0.0 0.0 0.00 1.42 1.42 90 1014.5
20260901204546 77 0 0.0 0.0 0.00 1.42 1.42 90 1014.8
20260901204339 78 244 0.0 0.0 0.00 1.42 1.42 90 1015.0
20260901203849 78 244 0.0 0.0 0.00 1.42 1.42 90 1015.0
20260901203359 78 244 0.0 0.0 0.00 1.42 1.42 90 1015.0
20260901203105 78 244 0.0 0.0 0.00 1.42 1.42 90 1014.5
20260901203048 78 0 0.0 1.0 0.00 1.42 1.42 90 1014.8
20260901202847 78 244 0.0 1.0 0.00 1.42 1.42 90 1015.0
20260901202337 78 244 0.0 1.0 0.00 1.42 1.42 90 1014.8
20260901201847 78 244 0.0 1.0 0.00 1.42 1.42 89 1014.8
20260901201615 78 244 0.0 1.0 0.00 1.42 1.42 89 1014.3
20260901201556 78 0 0.0 1.0 0.00 1.42 1.42 89 1014.6
20260901201337 78 244 0.0 0.0 0.00 1.42 1.42 89 1014.8
20260901200847 79 244 0.0 1.0 0.00 1.42 1.42 89 1014.9
20260901200359 79 244 0.0 1.0 0.00 1.42 1.42 88 1015.0
20260901200103 78 244 0.0 1.0 0.00 1.42 1.42 88 1014.5
20260901200052 79 0 0.0 1.0 0.00 1.42 1.42 88 1014.8
20260901195906 79 244 0.0 1.0 0.00 1.42 1.42 88 1015.0
20260901195336 79 244 0.0 3.0 0.00 1.42 1.42 87 1015.1
20260901194846 79 244 1.0 3.0 0.00 1.42 1.42 87 1015.1
20260901194615 79 244 1.0 3.0 0.00 1.42 1.42 87 1014.5
20260901194600 79 227 0.0 3.0 0.00 1.42 1.42 86 1014.7
20260901194356 79 278 1.0 3.0 0.00 1.42 1.42 87 1015.1
20260901193845 80 211 1.0 2.0 0.00 1.42 1.42 87 1015.1
20260901193356 80 225 1.0 4.0 0.00 1.42 1.42 87 1015.1
20260901193121 79 218 0.0 4.0 0.00 1.42 1.42 87 1014.5
20260901193056 79 0 0.0 4.0 0.00 1.42 1.42 86 1014.9
20260901192842 79 355 2.0 4.0 0.00 1.42 1.42 86 1015.1
20260901192337 80 270 1.0 3.0 0.00 1.42 1.42 88 1015.1
20260901191848 80 30 0.0 4.0 0.00 1.42 1.42 86 1015.0
20260901191616 80 240 1.0 4.0 0.00 1.42 1.42 87 1014.5
20260901191554 80 240 1.0 4.0 0.00 1.42 1.42 86 1014.9
20260901191337 80 242 1.0 4.0 0.00 1.42 1.42 87 1015.0
20260901190848 79 245 1.0 3.0 0.00 1.42 1.42 90 1015.0
20260901190359 79 26 1.0 3.0 0.00 1.42 1.42 89 1015.0
20260901190118 79 335 1.0 3.0 0.00 1.42 1.42 88 1014.5
20260901190052 78 11 0.0 3.0 0.00 1.42 1.42 88 1014.8
20260901185843 79 298 1.0 3.0 0.00 1.42 1.42 90 1015.0
20260901185352 78 182 0.0 2.0 0.00 1.42 1.42 90 1015.1
20260901184616 78 94 0.0 3.0 0.00 1.42 1.42 89 1014.5
20260901184546 78 0 0.0 3.0 0.00 1.42 1.42 89 1014.8
20260901184412 78 178 1.0 3.0 0.00 1.42 1.42 90 1015.0
20260901183842 78 209 0.0 1.0 0.00 1.42 1.42 91 1015.1
20260901183350 77 230 0.0 3.0 0.00 1.42 1.42 93 1015.1
20260901183107 77 227 0.0 3.0 0.00 1.42 1.42 94 1014.6
20260901183056 77 0 1.0 3.0 0.00 1.42 1.42 93 1014.9
20260901182854 77 223 1.0 3.0 0.00 1.42 1.42 94 1015.1
20260901182342 77 226 1.0 3.0 0.00 1.42 1.42 94 1015.2
20260901181914 76 90 1.0 2.0 0.00 1.42 1.42 95 1015.2
20260901181615 76 238 0.0 2.0 0.00 1.42 1.42 95 1014.7
20260901181554 76 269 1.0 2.0 0.00 1.42 1.42 95 1014.9
20260901181341 76 227 1.0 2.0 0.00 1.42 1.42 95 1015.2
20260901180851 75 253 1.0 2.0 0.00 1.42 1.42 96 1015.2
20260901180343 75 186 0.0 1.0 0.00 1.42 1.42 95 1015.2
20260901180113 74 186 0.0 1.0 0.00 1.42 1.42 95 1014.7
20260901180055 74 0 0.0 1.0 0.00 1.42 1.42 95 1015.0
20260901175850 74 186 0.0 1.0 0.00 1.42 1.42 95 1015.2
20260901175342 74 186 0.0 1.0 0.00 1.42 1.42 95 1015.4
20260901174852 74 243 0.0 2.0 0.00 1.42 1.42 95 1015.4
20260901174620 73 243 0.0 3.0 0.00 1.42 1.42 95 1014.8
20260901174546 73 0 0.0 3.0 0.00 1.42 1.42 95 1015.0
20260901174342 74 243 0.0 3.0 0.00 1.42 1.42 95 1015.3
20260901173912 74 71 1.0 2.0 0.00 1.42 1.42 95 1015.1
20260901173402 74 160 0.0 2.0 0.00 1.42 1.42 95 1015.3
20260901173105 73 136 0.0 2.0 0.01 1.42 1.42 95 1014.7
20260901173051 73 0 0.0 2.0 0.01 1.42 1.42 95 1015.0
20260901172848 73 136 0.0 2.0 0.01 1.42 1.42 95 1015.3
20260901172338 73 198 0.0 1.0 0.02 1.42 1.42 95 1015.3
20260901171848 73 202 0.0 1.0 0.02 1.42 1.42 95 1015.4
20260901171618 73 247 0.0 1.0 0.02 1.42 1.42 95 1014.8
20260901171550 73 0 0.0 1.0 0.02 1.42 1.42 95 1015.1
20260901171400 73 247 0.0 1.0 0.02 1.42 1.42 95 1015.4
20260901170849 73 166 0.0 2.0 0.02 1.42 1.42 95 1015.5
20260901170400 73 166 0.0 2.0 0.02 1.42 1.42 95 1015.3
20260901170116 73 169 0.0 1.0 0.03 1.42 1.42 95 1015.1
20260901170104 73 176 0.0 2.0 0.03 1.42 1.42 95 1014.8
20260901165846 73 207 0.0 1.0 0.03 1.42 1.42 95 1015.5
20260901165356 73 207 0.0 1.0 0.03 1.42 1.42 95 1015.5
20260901164846 73 157 0.0 2.0 0.04 1.42 1.42 95 1015.4
20260901164613 72 71 0.0 2.0 0.04 1.42 1.42 95 1014.8
20260901164552 72 0 0.0 2.0 0.04 1.42 1.42 95 1015.0
20260901164355 73 277 0.0 2.0 0.04 1.42 1.42 95 1015.4
20260901163844 73 178 1.0 2.0 0.06 1.42 1.42 95 1015.4
20260901163355 72 355 1.0 2.0 0.07 1.42 1.42 95 1015.5
20260901163044 72 0 0.0 2.0 0.06 1.41 1.41 95 1015.5
20260901163004 72 355 0.0 2.0 0.07 1.41 1.41 95 1015.3
20260901162901 72 355 0.0 2.0 0.07 1.41 1.41 95 1015.9
20260901162352 72 355 2.0 2.0 0.07 1.40 1.40 95 1015.9
20260901161842 72 355 0.0 2.0 0.08 1.40 1.40 95 1015.9
20260901161618 72 355 1.0 2.0 0.08 1.40 1.40 95 1015.6
20260901161559 72 355 1.0 2.0 0.08 1.40 1.40 95 1015.7
20260901161353 72 355 1.0 2.0 0.09 1.40 1.40 95 1016.2
20260901160843 72 240 0.0 1.0 0.09 1.40 1.40 95 1016.2
20260901160354 72 240 0.0 1.0 0.08 1.39 1.39 95 1016.2
20260901160119 71 240 0.0 0.0 0.08 1.39 1.39 95 1015.8
20260901160052 71 0 0.0 0.0 0.08 1.39 1.39 95 1016.1
20260901155841 72 240 0.0 0.0 0.08 1.39 1.39 95 1016.5
20260901155351 72 240 0.0 0.0 0.09 1.39 1.39 95 1016.6
20260901154845 71 240 0.0 1.0 0.08 1.38 1.38 95 1016.8
20260901154611 71 240 0.0 1.0 0.08 1.38 1.38 95 1016.1
20260901154559 71 0 0.0 1.0 0.08 1.38 1.38 95 1016.4
20260901154337 71 240 0.0 1.0 0.07 1.37 1.37 95 1016.6
20260901153906 71 240 0.0 1.0 0.06 1.36 1.36 95 1016.7
20260901153356 71 240 0.0 0.0 0.05 1.35 1.35 95 1016.7
20260901153116 71 240 0.0 1.0 0.06 1.35 1.35 95 1016.2
20260901153051 71 0 0.0 3.0 0.05 1.34 1.34 94 1016.4
20260901152843 71 240 0.0 3.0 0.05 1.34 1.34 95 1016.7
20260901152351 71 240 0.0 3.0 0.06 1.33 1.33 95 1016.8
20260901151902 71 235 1.0 2.0 0.06 1.32 1.32 95 1016.8
20260901151606 71 250 0.0 2.0 0.06 1.32 1.32 95 1016.3
20260901151548 71 0 0.0 2.0 0.05 1.31 1.31 95 1016.5
20260901151352 71 250 0.0 2.0 0.05 1.31 1.31 95 1016.6
20260901150842 71 163 0.0 1.0 0.05 1.31 1.31 95 1016.5
20260901150413 71 163 0.0 2.0 0.22 1.31 1.31 95 1016.5
20260901150113 71 163 0.0 2.0 0.32 1.31 1.31 95 1015.8
20260901150104 71 0 0.0 3.0 0.32 1.31 1.31 94 1016.1
20260901145840 71 194 0.0 2.0 0.32 1.31 1.31 95 1016.4
20260901145350 71 150 0.0 1.0 0.31 1.30 1.30 95 1016.5
20260901144840 71 113 0.0 1.0 0.31 1.30 1.30 95 1016.7
20260901144608 71 113 0.0 1.0 0.31 1.30 1.30 95 1016.3
20260901144552 71 0 0.0 1.0 0.31 1.30 1.30 95 1016.4
20260901144412 71 113 0.0 1.0 0.31 1.30 1.30 95 1016.8
20260901143842 71 209 0.0 1.0 0.31 1.30 1.30 95 1016.7
20260901143355 71 209 0.0 1.0 0.31 1.30 1.30 95 1016.7
20260901143135 70 209 0.0 1.0 0.30 1.29 1.29 95 1016.3
20260901143049 70 0 0.0 1.0 0.30 1.29 1.29 95 1016.5
20260901142839 71 209 0.0 1.0 0.29 1.28 1.28 95 1016.8
20260901142350 71 94 0.0 1.0 0.29 1.27 1.27 95 1016.7
20260901141842 71 165 0.0 3.0 0.28 1.26 1.26 95 1016.6
20260901141611 70 165 0.0 3.0 0.28 1.26 1.26 95 1016.1
20260901141554 70 165 0.0 3.0 0.28 1.26 1.26 94 1016.3
20260901141353 71 165 0.0 3.0 0.28 1.26 1.26 95 1016.7
20260901140844 71 225 0.0 3.0 0.27 1.25 1.25 95 1016.7
20260901140356 71 280 0.0 3.0 0.09 1.07 1.07 95 1017.3
20260901140052 70 284 0.0 2.0 0.01 0.99 0.99 94 1017.0
20260901140003 70 295 0.0 2.0 0.01 0.99 0.99 95 1016.7
20260901135902 71 43 0.0 1.0 0.01 0.99 0.99 95 1017.1
20260901135352 71 43 0.0 1.0 0.01 0.99 0.99 95 1016.8
20260901134842 71 43 0.0 1.0 0.01 0.99 0.99 95 1016.8
20260901134611 70 43 0.0 1.0 0.01 0.99 0.99 95 1016.5
20260901134545 70 0 0.0 1.0 0.01 0.99 0.99 94 1016.6
20260901134352 71 43 0.0 1.0 0.01 0.99 0.99 95 1016.9
20260901133840 71 43 0.0 1.0 0.01 0.99 0.99 95 1016.7
20260901133411 71 117 0.0 1.0 0.01 0.99 0.99 95 1016.7
20260901133115 70 117 0.0 0.0 0.01 0.99 0.99 95 1016.1
20260901133104 70 0 0.0 0.0 0.01 0.99 0.99 94 1016.3
20260901132856 71 117 0.0 0.0 0.01 0.99 0.99 95 1016.6
20260901132345 71 117 0.0 1.0 0.00 0.98 0.98 95 1016.6
20260901131856 71 117 0.0 1.0 0.00 0.98 0.98 95 1016.8
20260901131604 70 117 0.0 1.0 0.00 0.98 0.98 95 1016.3
20260901131549 70 0 0.0 1.0 0.00 0.98 0.98 94 1016.4
20260901131345 71 117 0.0 1.0 0.00 0.98 0.98 95 1016.7
20260901130854 71 117 0.0 1.0 0.00 0.98 0.98 95 1016.7
20260901130407 70 117 0.0 1.0 0.00 0.98 0.98 95 1016.7
20260901130109 70 117 0.0 3.0 0.00 0.98 0.98 95 1016.2
20260901130056 70 0 0.0 3.0 0.00 0.98 0.98 94 1016.3
20260901125853 70 117 0.0 3.0 0.00 0.98 0.98 95 1016.6
20260901125343 70 188 1.0 3.0 0.00 0.98 0.98 95 1016.7
20260901124914 70 155 0.0 1.0 0.00 0.98 0.98 95 1016.6
20260901124623 70 94 0.0 1.0 0.00 0.98 0.98 95 1016.0
20260901124550 70 0 0.0 1.0 0.00 0.98 0.98 94 1016.2
20260901124344 70 174 0.0 1.0 0.00 0.98 0.98 95 1016.6
20260901123855 70 174 0.0 1.0 0.00 0.98 0.98 95 1016.7
20260901123409 70 174 0.0 1.0 0.00 0.98 0.98 95 1016.7
20260901123127 70 174 0.0 1.0 0.00 0.98 0.98 95 1016.1
20260901123050 70 0 0.0 1.0 0.00 0.98 0.98 94 1016.3
20260901122854 70 174 0.0 1.0 0.01 0.98 0.98 95 1016.7
20260901122406 70 174 0.0 2.0 0.01 0.98 0.98 95 1016.8
20260901121855 70 174 0.0 2.0 0.01 0.98 0.98 95 1016.9
20260901121605 69 186 0.0 2.0 0.01 0.98 0.98 95 1016.3
20260901121601 69 0 0.0 2.0 0.01 0.98 0.98 94 1016.4
20260901121346 70 154 0.0 1.0 0.01 0.98 0.98 95 1016.7
20260901120857 70 154 0.0 1.0 0.01 0.98 0.98 95 1016.7
20260901120346 70 154 0.0 1.0 0.01 0.98 0.98 95 1016.8
20260901120113 69 154 0.0 1.0 0.01 0.98 0.98 95 1016.5
20260901120049 69 0 0.0 1.0 0.01 0.98 0.98 94 1016.6
20260901115854 70 154 0.0 1.0 0.01 0.98 0.98 95 1017.0
20260901115342 70 154 0.0 1.0 0.01 0.98 0.98 95 1016.8
20260901114914 70 154 0.0 1.0 0.01 0.98 0.98 95 1016.8
20260901114622 69 154 0.0 1.0 0.01 0.98 0.98 95 1016.4
20260901114556 69 0 0.0 1.0 0.01 0.98 0.98 94 1016.5
20260901114342 69 71 0.0 1.0 0.01 0.98 0.98 95 1016.9
20260901113851 69 71 0.0 2.0 0.01 0.98 0.98 95 1016.9
20260901113345 69 82 0.0 2.0 0.01 0.98 0.98 95 1016.7
20260901113106 69 82 0.0 2.0 0.01 0.98 0.98 95 1016.0
20260901113100 69 113 0.0 1.0 0.01 0.98 0.98 94 1016.1
20260901112908 69 162 0.0 1.0 0.00 0.97 0.97 95 1016.5
20260901112341 69 162 0.0 1.0 0.00 0.97 0.97 95 1016.4
20260901111848 69 162 0.0 1.0 0.00 0.97 0.97 95 1016.5
20260901111613 69 162 0.0 1.0 0.00 0.97 0.97 95 1016.1
20260901111552 69 0 0.0 1.0 0.00 0.97 0.97 94 1016.3
20260901111340 69 292 0.0 0.0 0.00 0.97 0.97 95 1016.7
20260901110850 69 292 0.0 1.0 0.00 0.97 0.97 95 1016.8
20260901110341 69 292 0.0 1.0 0.00 0.97 0.97 95 1016.8
20260901110123 69 292 0.0 1.0 0.00 0.97 0.97 95 1016.3
20260901110050 69 0 0.0 1.0 0.00 0.97 0.97 94 1016.5
20260901105848 69 292 0.0 1.0 0.00 0.97 0.97 95 1016.8
20260901105359 69 292 0.0 1.0 0.00 0.97 0.97 95 1017.0
20260901104910 69 292 0.0 0.0 0.00 0.97 0.97 95 1017.0
20260901104614 69 292 0.0 0.0 0.00 0.97 0.97 95 1016.5
20260901104556 69 0 0.0 0.0 0.00 0.97 0.97 94 1016.6
20260901104340 69 292 0.0 0.0 0.00 0.97 0.97 95 1016.8
20260901103850 69 292 0.0 0.0 0.00 0.97 0.97 95 1016.7
20260901103342 69 292 0.0 2.0 0.00 0.97 0.97 95 1016.9
20260901103105 69 292 0.0 2.0 0.00 0.97 0.97 95 1016.4
20260901103054 69 0 0.0 2.0 0.00 0.97 0.97 94 1016.6
20260901102850 69 292 0.0 2.0 0.00 0.97 0.97 95 1017.0
20260901102402 69 292 1.0 2.0 0.00 0.97 0.97 95 1016.9
20260901101852 69 292 0.0 1.0 0.00 0.97 0.97 95 1016.8
20260901101615 69 292 0.0 2.0 0.00 0.97 0.97 95 1016.2
20260901101550 69 0 0.0 2.0 0.00 0.97 0.97 94 1016.4
20260901101342 69 292 0.0 2.0 0.00 0.97 0.97 95 1016.7
20260901100852 69 292 2.0 2.0 0.00 0.97 0.97 95 1016.7
20260901100343 69 223 0.0 1.0 0.00 0.97 0.97 95 1016.5
20260901100107 68 223 0.0 1.0 0.00 0.97 0.97 95 1016.0
20260901100055 68 0 0.0 1.0 0.00 0.97 0.97 94 1016.2
20260901095849 69 223 1.0 1.0 0.00 0.97 0.97 95 1016.5
20260901095339 69 223 0.0 0.0 0.00 0.97 0.97 95 1016.5
20260901094850 69 223 0.0 0.0 0.00 0.97 0.97 95 1016.7
20260901094618 68 223 0.0 0.0 0.00 0.97 0.97 94 1016.2
20260901094552 68 0 0.0 0.0 0.00 0.97 0.97 94 1016.4
20260901094339 69 223 0.0 0.0 0.00 0.97 0.97 94 1016.6
20260901093850 69 223 0.0 0.0 0.00 0.97 0.97 94 1016.7
20260901093341 69 223 0.0 1.0 0.00 0.97 0.97 94 1016.7
20260901093107 68 223 0.0 1.0 0.00 0.97 0.97 94 1016.2
20260901093058 68 0 0.0 1.0 0.00 0.97 0.97 94 1016.4
20260901092848 69 223 0.0 1.0 0.00 0.97 0.97 95 1016.7
20260901092338 69 355 0.0 1.0 0.00 0.97 0.97 94 1016.7
20260901091848 69 355 0.0 1.0 0.00 0.97 0.97 94 1016.7
20260901091615 68 355 0.0 1.0 0.00 0.97 0.97 94 1016.2
20260901091556 68 0 0.0 1.0 0.00 0.97 0.97 94 1016.3
20260901091338 69 355 0.0 1.0 0.00 0.97 0.97 94 1016.8
20260901090850 69 355 0.0 1.0 0.01 0.97 0.97 94 1016.8
20260901090402 69 355 0.0 1.0 0.01 0.97 0.97 94 1016.8
20260901090106 68 355 0.0 1.0 0.01 0.97 0.97 94 1016.3
20260901090053 68 0 0.0 1.0 0.01 0.97 0.97 94 1016.4
20260901085848 69 355 0.0 1.0 0.01 0.97 0.97 94 1016.7
20260901085340 69 355 0.0 0.0 0.01 0.97 0.97 94 1016.8
20260901084849 69 355 0.0 0.0 0.01 0.97 0.97 94 1016.8
20260901084618 68 355 0.0 0.0 0.01 0.97 0.97 94 1016.4
20260901084557 68 0 0.0 0.0 0.01 0.97 0.97 94 1016.6
20260901084339 69 355 0.0 0.0 0.01 0.97 0.97 94 1016.9
20260901083910 69 355 0.0 0.0 0.01 0.97 0.97 94 1016.9
20260901083341 69 355 0.0 1.0 0.01 0.97 0.97 94 1017.0
20260901083106 68 355 0.0 1.0 0.01 0.97 0.97 94 1016.5
20260901083046 68 0 0.0 1.0 0.01 0.97 0.97 94 1016.6
20260901082848 69 355 0.0 1.0 0.01 0.97 0.97 94 1017.0
20260901082336 69 355 0.0 1.0 0.01 0.97 0.97 94 1017.0
20260901081848 69 355 0.0 0.0 0.01 0.97 0.97 94 1017.1
20260901081617 68 355 0.0 0.0 0.01 0.97 0.97 94 1016.7
20260901081554 68 0 0.0 0.0 0.01 0.97 0.97 94 1016.8
20260901081341 69 355 0.0 0.0 0.01 0.97 0.97 94 1017.1
20260901080850 69 355 0.0 1.0 0.00 0.96 0.96 94 1017.2
20260901080340 69 355 0.0 1.0 0.00 0.96 0.96 94 1017.3
20260901080123 68 355 0.0 1.0 0.00 0.96 0.96 94 1016.8
20260901080056 68 0 0.0 0.0 0.00 0.96 0.96 94 1017.0
20260901075847 69 355 0.0 0.0 0.00 0.96 0.96 94 1017.3
20260901075337 69 355 0.0 0.0 0.00 0.96 0.96 94 1017.3
20260901074848 69 355 0.0 0.0 0.00 0.96 0.96 94 1017.3
20260901074613 68 355 0.0 0.0 0.00 0.96 0.96 94 1016.9
20260901074557 68 0 0.0 0.0 0.00 0.96 0.96 94 1017.0
20260901074338 69 355 0.0 0.0 0.00 0.96 0.96 94 1017.4
20260901073850 69 355 0.0 1.0 0.00 0.96 0.96 94 1017.4
20260901073341 69 355 0.0 2.0 0.00 0.96 0.96 94 1017.4
20260901073108 68 355 0.0 2.0 0.00 0.96 0.96 94 1016.9
20260901073045 68 0 0.0 2.0 0.00 0.96 0.96 94 1017.0
20260901072848 69 355 1.0 2.0 0.00 0.96 0.96 94 1017.3
20260901072338 69 249 0.0 1.0 0.00 0.96 0.96 94 1017.3
20260901071848 69 249 0.0 1.0 0.01 0.96 0.96 94 1017.3
20260901071619 68 249 0.0 1.0 0.02 0.96 0.96 94 1016.8
20260901071554 68 0 0.0 0.0 0.02 0.96 0.96 94 1016.8
20260901071338 69 249 0.0 0.0 0.03 0.96 0.96 94 1017.3
20260901070850 69 249 0.0 0.0 0.05 0.96 0.96 94 1017.4
20260901070340 69 249 0.0 0.0 0.08 0.96 0.96 94 1017.4
20260901070112 68 249 0.0 0.0 0.11 0.96 0.96 94 1016.9
20260901070045 68 0 0.0 0.0 0.11 0.96 0.96 94 1017.1
20260901065848 69 249 0.0 0.0 0.12 0.96 0.96 94 1017.4
20260901065338 69 249 0.0 0.0 0.20 0.96 0.96 94 1017.5
20260901064847 69 249 0.0 1.0 0.26 0.96 0.96 94 1017.5
20260901064616 68 249 0.0 1.0 0.28 0.96 0.96 94 1017.0
20260901064552 68 0 0.0 3.0 0.29 0.96 0.96 93 1017.1
20260901064337 69 249 0.0 3.0 0.33 0.96 0.96 94 1017.4
20260901063846 69 249 0.0 3.0 0.40 0.96 0.96 94 1017.4
20260901063358 69 201 0.0 1.0 0.46 0.96 0.96 94 1017.4
20260901063111 69 201 0.0 1.0 0.47 0.96 0.96 94 1017.0
20260901063109 69 0 0.0 1.0 0.47 0.96 0.96 93 1017.1
20260901062845 69 202 0.0 1.0 0.48 0.96 0.96 94 1017.5
20260901062357 69 202 0.0 1.0 0.53 0.96 0.96 94 1017.7
20260901061845 69 202 0.0 1.0 0.58 0.95 0.95 94 1017.7
20260901061629 69 202 0.0 1.0 0.57 0.94 0.94 94 1017.2
20260901061550 69 0 0.0 1.0 0.58 0.94 0.94 93 1017.4
20260901061337 69 202 0.0 1.0 0.57 0.93 0.93 94 1017.7
20260901060847 69 202 0.0 1.0 0.56 0.90 0.90 94 1017.8
20260901060343 69 203 0.0 1.0 0.55 0.87 0.87 93 1017.9
20260901060103 69 207 0.0 1.0 0.55 0.85 0.85 93 1017.4
20260901060047 69 0 0.0 1.0 0.55 0.85 0.85 93 1017.5
20260901055850 69 225 0.0 1.0 0.55 0.83 0.83 93 1017.9
20260901055401 69 227 0.0 1.0 0.50 0.75 0.75 93 1017.9
20260901054850 69 182 0.0 1.0 0.48 0.69 0.69 93 1017.9
20260901054617 69 182 0.0 1.0 0.48 0.67 0.67 93 1017.3
20260901054554 69 0 0.0 1.0 0.47 0.66 0.66 93 1017.5
20260901054341 69 183 0.0 1.0 0.43 0.61 0.61 93 1017.9
20260901053849 69 183 0.0 1.0 0.40 0.55 0.55 93 1018.0
20260901053340 69 204 0.0 1.0 0.37 0.49 0.49 93 1018.0